Tracking 22130 objects as of 21-Jan-2021
HD Live streaming from Space Station
objects crossing your sky now

STARLINK-1224

Track STARLINK-1224 now!
10-day predictions
STARLINK-1224 is classified as:


NORAD ID: 45186
Int'l Code: 2020-012J
Perigee: 553.0 km
Apogee: 555.7 km
Inclination: 53.1 °
Period: 95.6 minutes
Semi major axis: 6925 km
RCS: Unknown
Launch date: February 17, 2020
Source: United States (US)
Launch site: AIR FORCE EASTERN TEST RANGE (AFETR)
aabbcc
Your satellite tracking list
Your tracking list is empty




NASA's NSSDC Master Catalog

Two Line Element Set (TLE):
1 45186U 20012J   21021.54193843  .00000248  00000-0  35555-4 0  9993
2 45186  53.0577 175.4835 0001916  83.3400 276.7807 15.06396127 52454
Source of the keplerian elements: AFSPC